FW5246 Weather Reports


Display with metric or nautical units.
time (UTC)temp
F
wind
direction
speed
MPH
gust
MPH
rain 1hr
in
rain 24hr
in
rain mn
in
humidity
%
barometer
mb
20260506211530 51 360 0.0 3.0 0.03 0.25 0.06 95 1007.5
20260506210033 52 360 0.0 2.0 0.05 0.24 0.05 95 1007.2
20260506204521 52 360 0.0 3.0 0.05 0.24 0.05 95 1006.9
20260506203016 54 360 1.0 3.0 0.04 0.23 0.04 94 1006.6
20260506201513 56 360 1.0 5.0 0.03 0.22 0.03 93 1006.3
20260506200020 59 360 0.0 3.0 0.00 0.19 0.00 96 1005.9
20260506194505 59 360 0.0 5.0 0.00 0.19 0.00 96 1006.0
20260506193004 59 360 0.0 2.0 0.00 0.19 0.19 96 1006.0
20260506191504 59 360 0.0 5.0 0.00 0.19 0.19 96 1006.1
20260506190004 59 360 0.0 5.0 0.00 0.19 0.19 97 1006.0
20260506184504 58 360 0.0 3.0 0.00 0.19 0.19 97 1006.0
20260506183100 58 360 0.0 1.0 0.00 0.19 0.19 97 1006.2
20260506181600 58 360 0.0 5.0 0.00 0.19 0.19 97 1006.3
20260506180100 58 360 0.0 3.0 0.00 0.19 0.19 97 1006.4
20260506174600 58 360 1.0 4.0 0.01 0.19 0.19 97 1006.2
20260506173028 58 360 0.0 4.0 0.02 0.19 0.19 97 1006.1
20260506171529 59 360 1.0 5.0 0.02 0.19 0.19 97 1006.1
20260506170025 58 360 2.0 5.0 0.02 0.19 0.19 97 1006.3
20260506164525 58 360 0.0 0.0 0.01 0.18 0.18 97 1006.5
20260506163025 58 360 0.0 3.0 0.01 0.17 0.17 97 1006.4
20260506161527 58 360 0.0 4.0 0.03 0.17 0.17 96 1006.4
20260506160022 58 360 1.0 4.0 0.04 0.17 0.17 97 1006.4
20260506154521 58 360 1.0 6.0 0.04 0.17 0.17 96 1006.5
20260506153020 58 360 2.0 6.0 0.03 0.15 0.15 96 1006.7
20260506151521 58 360 2.0 8.0 0.02 0.14 0.14 96 1006.7
20260506150050 58 360 2.0 8.0 0.02 0.13 0.13 96 1006.6
20260506144550 57 360 2.0 8.0 0.04 0.13 0.13 96 1006.4
20260506143047 57 360 2.0 6.0 0.05 0.12 0.12 96 1006.4
20260506141604 57 360 1.0 4.0 0.07 0.12 0.12 96 1006.5
20260506140047 56 360 1.0 3.0 0.08 0.11 0.11 95 1006.5
20260506134544 56 360 0.0 1.0 0.09 0.09 0.09 94 1006.7
20260506133042 56 360 0.0 0.0 0.07 0.07 0.07 94 1007.1
20260506131543 56 360 0.0 0.0 0.05 0.05 0.05 94 1007.3
20260506130041 56 360 0.0 0.0 0.03 0.03 0.03 92 1007.7
20260506124541 57 360 0.0 0.0 0.00 0.00 0.00 90 1007.4
20260506123014 58 360 0.0 0.0 0.00 0.00 0.00 90 1006.8
20260506121509 57 360 0.0 0.0 0.00 0.00 0.00 88 1006.6
20260506120105 57 360 0.0 0.0 0.00 0.00 0.00 86 1006.9
20260506114543 58 360 0.0 0.0 0.00 0.00 0.00 87 1007.0
20260506113010 57 360 0.0 0.0 0.00 0.00 0.00 85 1006.8
20260506111506 57 360 0.0 0.0 0.00 0.00 0.00 83 1006.8
20260506110004 57 360 0.0 0.0 0.00 0.00 0.00 81 1006.9
20260506104504 57 360 0.0 0.0 0.00 0.00 0.00 83 1006.9
20260506103005 57 360 0.0 0.0 0.00 0.00 0.00 82 1006.4
20260506101503 57 360 0.0 0.0 0.00 0.00 0.00 83 1006.5
20260506100100 57 360 0.0 0.0 0.00 0.00 0.00 80 1006.3
20260506094600 57 360 0.0 0.0 0.00 0.00 0.00 80 1006.6
20260506093059 57 360 0.0 0.0 0.00 0.00 0.00 79 1006.5
20260506091559 57 360 0.0 0.0 0.00 0.00 0.00 79 1006.6
20260506090056 57 360 0.0 0.0 0.00 0.00 0.00 79 1006.6
20260506084556 57 360 0.0 0.0 0.00 0.00 0.00 79 1006.6
20260506083055 56 360 0.0 0.0 0.00 0.00 0.00 79 1006.9
20260506081555 56 360 0.0 0.0 0.00 0.00 0.00 82 1006.8
20260506073022 56 360 0.0 0.0 0.00 0.00 0.00 83 1006.7
20260506071522 55 360 0.0 0.0 0.00 0.00 0.00 84 1006.9
20260506061549 55 360 0.0 0.0 0.00 0.00 0.00 85 1007.2
20260506044551 56 360 0.0 0.0 0.00 0.00 0.00 83 1007.9
20260506043038 56 360 0.0 0.0 0.00 0.00 0.00 83 1007.8
20260506041546 56 360 0.0 0.0 0.00 0.00 0.00 82 1008.0
20260506040041 56 360 0.0 0.0 0.00 0.00 0.00 82 1008.2
20260506034533 56 360 0.0 0.0 0.00 0.00 0.00 80 1008.3
20260506033030 57 360 0.0 0.0 0.00 0.00 0.00 79 1008.2
20260506031531 58 360 0.0 0.0 0.00 0.00 0.00 79 1008.3
20260506030025 58 360 0.0 0.0 0.00 0.00 0.00 77 1008.2
20260506024552 59 360 0.0 0.0 0.00 0.00 0.00 74 1008.1
20260506023050 60 360 0.0 0.0 0.00 0.00 0.00 74 1008.1
20260506021546 61 360 0.0 0.0 0.00 0.00 0.00 73 1008.0
20260506020044 62 360 0.0 0.0 0.00 0.00 0.00 72 1008.1
20260506014540 62 360 0.0 0.0 0.00 0.00 0.00 69 1008.1
20260506013044 63 360 0.0 0.0 0.00 0.00 0.00 68 1007.9
20260506011533 64 360 0.0 0.0 0.00 0.00 0.00 66 1007.7
20260506010032 64 360 0.0 0.0 0.00 0.00 0.00 63 1007.5
20260506004533 66 360 0.0 0.0 0.00 0.00 0.00 62 1007.4
20260506003023 67 360 0.0 0.0 0.00 0.00 0.00 61 1007.2
20260506001518 68 360 0.0 0.0 0.00 0.00 0.00 61 1007.3
20260506000016 68 360 0.0 0.0 0.00 0.00 0.00 61 1007.0
20260505234524 69 360 0.0 0.0 0.00 0.00 0.00 58 1006.9
20260505233015 70 360 0.0 0.0 0.00 0.00 0.00 56 1006.9
20260505231510 71 360 0.0 1.0 0.00 0.00 0.00 55 1006.7
20260505230002 72 351 0.0 0.0 0.00 0.00 0.00 55 1006.7
20260505224559 73 351 0.0 0.0 0.00 0.00 0.00 51 1006.7
20260505223104 73 189 0.0 2.0 0.00 0.00 0.00 50 1006.6
20260505221528 73 141 0.0 3.0 0.00 0.00 0.00 48 1006.3
20260505220025 74 43 1.0 7.0 0.00 0.00 0.00 50 1006.3
20260505214524 73 57 2.0 8.0 0.00 0.00 0.00 49 1006.2
20260505213017 74 96 0.0 7.0 0.00 0.00 0.00 50 1006.2